Time,TemperatureF,DewpointF,PressureIn,WindDirection,WindDirectionDegrees,WindSpeedMPH,WindSpeedGustMPH,Humidity,HourlyPrecipIn,Conditions,Clouds,dailyrainin,SoftwareType,DateUTC
2013-03-31 00:03:00,36.0,-99.9,30.13,West,278,0.0,0.0,81,0.00,,,0.00,,2013-03-31 04:03:00,
2013-03-31 00:13:00,36.0,31.0,30.13,West,278,0.0,0.0,81,0.00,,,0.00,,2013-03-31 04:13:00,
2013-03-31 00:23:00,35.0,30.0,30.13,West,278,0.0,0.0,81,0.00,,,0.00,,2013-03-31 04:23:00,
2013-03-31 00:33:00,35.0,30.0,30.12,West,278,0.0,0.0,81,0.00,,,0.00,,2013-03-31 04:33:00,
2013-03-31 00:42:00,35.0,30.0,30.12,West,278,0.0,0.0,81,0.00,,,0.00,,2013-03-31 04:42:00,
2013-03-31 00:53:00,35.0,30.0,30.13,West,278,0.0,0.0,82,0.00,,,0.00,,2013-03-31 04:53:00,
2013-03-31 01:02:00,34.0,29.0,30.13,West,278,0.0,0.0,83,0.00,,,0.00,,2013-03-31 05:02:00,
2013-03-31 01:12:00,34.0,29.0,30.13,West,278,0.0,0.0,83,0.00,,,0.00,,2013-03-31 05:12:00,
2013-03-31 01:22:00,34.0,29.0,30.12,West,278,0.0,0.0,83,0.00,,,0.00,,2013-03-31 05:22:00,
2013-03-31 01:32:00,34.0,30.0,30.12,West,278,0.0,0.0,84,0.00,,,0.00,,2013-03-31 05:32:00,
2013-03-31 01:42:00,34.0,30.0,30.12,West,278,0.0,0.0,84,0.00,,,0.00,,2013-03-31 05:42:00,
2013-03-31 01:53:00,33.0,29.0,30.13,West,278,0.0,1.0,85,0.00,,,0.00,,2013-03-31 05:53:00,
2013-03-31 02:02:00,33.0,29.0,30.12,West,278,0.0,0.0,86,0.00,,,0.00,,2013-03-31 06:02:00,
2013-03-31 02:12:00,33.0,29.0,30.12,West,278,0.0,0.0,86,0.00,,,0.00,,2013-03-31 06:12:00,
2013-03-31 02:22:00,33.0,29.0,30.12,West,278,0.0,0.0,86,0.00,,,0.00,,2013-03-31 06:22:00,
2013-03-31 02:32:00,32.0,29.0,30.12,West,278,0.0,0.0,87,0.00,,,0.00,,2013-03-31 06:32:00,
2013-03-31 02:42:00,32.0,29.0,30.12,West,278,0.0,0.0,87,0.00,,,0.00,,2013-03-31 06:42:00,
2013-03-31 02:53:00,32.0,29.0,30.11,West,278,0.0,1.0,87,0.00,,,0.00,,2013-03-31 06:53:00,
2013-03-31 03:02:00,31.0,28.0,30.11,West,278,0.0,0.0,88,0.00,,,0.00,,2013-03-31 07:02:00,
2013-03-31 03:12:00,31.0,28.0,30.11,West,278,0.0,0.0,88,0.00,,,0.00,,2013-03-31 07:12:00,
2013-03-31 03:22:00,31.0,28.0,30.11,West,278,0.0,0.0,88,0.00,,,0.00,,2013-03-31 07:22:00,
2013-03-31 03:33:00,31.0,28.0,30.11,West,278,0.0,0.0,88,0.00,,,0.00,,2013-03-31 07:33:00,
2013-03-31 03:42:00,31.0,28.0,30.11,West,278,0.0,0.0,88,0.00,,,0.00,,2013-03-31 07:42:00,
2013-03-31 03:53:00,31.0,28.0,30.10,West,278,0.0,0.0,89,0.00,,,0.00,,2013-03-31 07:53:00,
2013-03-31 04:02:00,31.0,28.0,30.10,West,278,0.0,0.0,90,0.00,,,0.00,,2013-03-31 08:02:00,
2013-03-31 04:12:00,31.0,28.0,30.10,West,278,0.0,0.0,90,0.00,,,0.00,,2013-03-31 08:12:00,
2013-03-31 04:22:00,31.0,28.0,30.10,West,278,0.0,0.0,90,0.00,,,0.00,,2013-03-31 08:22:00,
2013-03-31 04:32:00,31.0,29.0,30.10,West,278,0.0,0.0,91,0.00,,,0.00,,2013-03-31 08:32:00,
2013-03-31 04:42:00,31.0,29.0,30.10,West,278,0.0,0.0,91,0.00,,,0.00,,2013-03-31 08:42:00,
2013-03-31 04:52:00,31.0,28.0,30.09,West,278,0.0,0.0,90,0.00,,,0.00,,2013-03-31 08:52:00,
2013-03-31 05:02:00,30.0,28.0,30.09,West,278,0.0,0.0,91,0.00,,,0.00,,2013-03-31 09:02:00,
2013-03-31 05:12:00,30.0,28.0,30.09,West,278,0.0,0.0,91,0.00,,,0.00,,2013-03-31 09:12:00,
2013-03-31 05:22:00,30.0,28.0,30.09,West,278,0.0,0.0,91,0.00,,,0.00,,2013-03-31 09:22:00,
2013-03-31 05:33:00,30.0,28.0,30.09,West,278,0.0,0.0,91,0.00,,,0.00,,2013-03-31 09:33:00,
2013-03-31 05:42:00,30.0,28.0,30.09,West,278,0.0,0.0,91,0.00,,,0.00,,2013-03-31 09:42:00,
2013-03-31 05:53:00,30.0,28.0,30.08,West,278,0.0,0.0,92,0.00,,,0.00,,2013-03-31 09:53:00,
2013-03-31 06:03:00,30.0,28.0,30.08,West,278,0.0,0.0,93,0.00,,,0.00,,2013-03-31 10:03:00,
2013-03-31 06:13:00,30.0,28.0,30.08,West,278,0.0,0.0,93,0.00,,,0.00,,2013-03-31 10:13:00,
2013-03-31 06:24:00,30.0,28.0,30.08,West,278,0.0,0.0,93,0.00,,,0.00,,2013-03-31 10:24:00,
2013-03-31 06:32:00,30.0,28.0,30.08,West,278,0.0,0.0,93,0.00,,,0.00,,2013-03-31 10:32:00,
2013-03-31 06:42:00,30.0,28.0,30.08,West,278,0.0,0.0,93,0.00,,,0.00,,2013-03-31 10:42:00,
2013-03-31 06:53:00,30.0,28.0,30.08,West,278,0.0,0.0,93,0.00,,,0.00,,2013-03-31 10:53:00,
2013-03-31 07:03:00,30.0,28.0,30.07,West,278,0.0,0.0,93,0.00,,,0.00,,2013-03-31 11:03:00,
2013-03-31 07:12:00,30.0,28.0,30.07,West,278,0.0,0.0,93,0.00,,,0.00,,2013-03-31 11:12:00,
2013-03-31 07:23:00,30.0,28.0,30.07,West,278,0.0,1.0,93,0.00,,,0.00,,2013-03-31 11:23:00,
2013-03-31 07:32:00,30.0,28.0,30.07,West,278,0.0,1.0,93,0.00,,,0.00,,2013-03-31 11:32:00,
2013-03-31 07:42:00,30.0,28.0,30.07,West,278,0.0,1.0,93,0.00,,,0.00,,2013-03-31 11:42:00,
2013-03-31 07:53:00,31.0,29.0,30.07,West,278,0.0,0.0,94,0.00,,,0.00,,2013-03-31 11:53:00,
2013-03-31 08:03:00,32.0,30.0,30.07,West,278,0.0,0.0,94,0.00,,,0.00,,2013-03-31 12:03:00,
2013-03-31 08:12:00,32.0,30.0,30.07,West,278,0.0,0.0,94,0.00,,,0.00,,2013-03-31 12:12:00,
2013-03-31 08:22:00,32.0,30.0,30.07,West,278,0.0,0.0,94,0.00,,,0.00,,2013-03-31 12:22:00,
2013-03-31 08:33:00,35.0,34.0,30.07,West,278,0.0,0.0,95,0.00,,,0.00,,2013-03-31 12:33:00,
2013-03-31 08:42:00,35.0,34.0,30.07,West,278,0.0,0.0,95,0.00,,,0.00,,2013-03-31 12:42:00,
2013-03-31 08:53:00,35.0,34.0,30.07,West,278,0.0,0.0,95,0.00,,,0.00,,2013-03-31 12:53:00,
2013-03-31 09:02:00,35.0,34.0,30.07,West,278,0.0,0.0,95,0.00,,,0.00,,2013-03-31 13:02:00,
2013-03-31 09:12:00,35.0,34.0,30.07,West,278,0.0,0.0,95,0.00,,,0.00,,2013-03-31 13:12:00,
2013-03-31 09:23:00,43.0,37.0,30.06,SSE,148,0.0,1.0,80,0.00,,,0.00,,2013-03-31 13:23:00,
2013-03-31 09:33:00,43.0,37.0,30.06,SSE,148,0.0,1.0,80,0.00,,,0.00,,2013-03-31 13:33:00,
2013-03-31 09:42:00,43.0,37.0,30.06,SSE,148,0.0,1.0,80,0.00,,,0.00,,2013-03-31 13:42:00,
2013-03-31 09:53:00,43.0,37.0,30.06,SSE,148,0.0,1.0,80,0.00,,,0.00,,2013-03-31 13:53:00,
2013-03-31 10:02:00,49.0,37.0,30.04,SW,215,1.0,6.0,62,0.00,,,0.00,,2013-03-31 14:02:00,
2013-03-31 10:12:00,49.0,37.0,30.04,SW,215,1.0,6.0,62,0.00,,,0.00,,2013-03-31 14:12:00,
2013-03-31 10:22:00,51.0,36.0,30.03,SSE,152,2.0,7.0,57,0.00,,,0.00,,2013-03-31 14:22:00,
2013-03-31 10:33:00,52.0,34.0,30.02,SSW,209,4.0,8.0,51,0.00,,,0.00,,2013-03-31 14:33:00,
2013-03-31 10:42:00,52.0,34.0,30.02,SSW,209,4.0,8.0,51,0.00,,,0.00,,2013-03-31 14:42:00,
2013-03-31 10:52:00,52.0,34.0,30.02,SSW,209,4.0,8.0,51,0.00,,,0.00,,2013-03-31 14:52:00,
2013-03-31 11:03:00,53.0,33.0,30.01,WSW,244,5.0,11.0,46,0.00,,,0.00,,2013-03-31 15:03:00,
2013-03-31 11:13:00,53.0,33.0,30.01,WSW,244,5.0,11.0,46,0.00,,,0.00,,2013-03-31 15:13:00,
2013-03-31 11:23:00,54.0,33.0,30.00,SSE,155,4.0,14.0,44,0.00,,,0.00,,2013-03-31 15:23:00,
2013-03-31 11:34:00,54.0,31.0,29.99,South,180,6.0,13.0,42,0.00,,,0.00,,2013-03-31 15:34:00,
2013-03-31 11:43:00,54.0,31.0,29.99,South,180,6.0,13.0,42,0.00,,,0.00,,2013-03-31 15:43:00,
2013-03-31 11:54:00,55.0,33.0,29.98,SSW,198,4.0,8.0,43,0.00,,,0.00,,2013-03-31 15:54:00,
2013-03-31 12:03:00,55.0,33.0,29.98,SSW,200,2.0,8.0,43,0.00,,,0.00,,2013-03-31 16:03:00,
2013-03-31 12:13:00,55.0,33.0,29.98,SSW,200,2.0,8.0,43,0.00,,,0.00,,2013-03-31 16:13:00,
2013-03-31 12:23:00,56.0,34.0,29.97,SSE,153,2.0,13.0,43,0.00,,,0.00,,2013-03-31 16:23:00,
2013-03-31 12:33:00,56.0,34.0,29.97,SSE,153,2.0,13.0,43,0.00,,,0.00,,2013-03-31 16:33:00,
2013-03-31 12:43:00,56.0,34.0,29.97,SSE,153,2.0,13.0,43,0.00,,,0.00,,2013-03-31 16:43:00,
2013-03-31 12:53:00,56.0,34.0,29.95,South,188,5.0,11.0,44,0.00,,,0.00,,2013-03-31 16:53:00,
2013-03-31 13:03:00,56.0,35.0,29.95,SSE,162,4.0,9.0,45,0.00,,,0.00,,2013-03-31 17:03:00,
2013-03-31 13:13:00,56.0,35.0,29.95,SSE,162,4.0,9.0,45,0.00,,,0.00,,2013-03-31 17:13:00,
2013-03-31 13:23:00,56.0,36.0,29.94,South,176,4.0,9.0,47,0.00,,,0.00,,2013-03-31 17:23:00,
2013-03-31 13:32:00,56.0,36.0,29.94,South,176,4.0,9.0,47,0.00,,,0.00,,2013-03-31 17:32:00,
2013-03-31 13:43:00,56.0,36.0,29.94,South,176,4.0,9.0,47,0.00,,,0.00,,2013-03-31 17:43:00,
2013-03-31 13:52:00,55.0,37.0,29.91,SSW,198,1.0,7.0,50,0.00,,,0.00,,2013-03-31 17:52:00,
2013-03-31 14:03:00,56.0,37.0,29.90,South,186,2.0,10.0,49,0.00,,,0.00,,2013-03-31 18:03:00,
2013-03-31 14:13:00,56.0,37.0,29.90,South,186,2.0,10.0,49,0.00,,,0.00,,2013-03-31 18:13:00,
2013-03-31 14:22:00,57.0,38.0,29.89,SSE,156,0.0,9.0,49,0.00,,,0.00,,2013-03-31 18:22:00,
2013-03-31 14:32:00,57.0,38.0,29.89,SSE,156,0.0,9.0,49,0.00,,,0.00,,2013-03-31 18:32:00,
2013-03-31 14:42:00,57.0,38.0,29.89,SSE,156,0.0,9.0,49,0.00,,,0.00,,2013-03-31 18:42:00,
2013-03-31 14:53:00,57.0,37.0,29.87,SE,145,2.0,7.0,47,0.00,,,0.00,,2013-03-31 18:53:00,
2013-03-31 15:03:00,57.0,38.0,29.85,SE,130,1.0,7.0,48,0.00,,,0.00,,2013-03-31 19:03:00,
2013-03-31 15:12:00,57.0,38.0,29.85,SE,130,1.0,7.0,48,0.00,,,0.00,,2013-03-31 19:12:00,
2013-03-31 15:22:00,57.0,39.0,29.85,ESE,115,4.0,9.0,50,0.00,,,0.00,,2013-03-31 19:22:00,
2013-03-31 15:33:00,56.0,40.0,29.84,SSE,166,3.0,6.0,55,0.00,,,0.00,,2013-03-31 19:33:00,
2013-03-31 15:43:00,56.0,40.0,29.84,SSE,166,3.0,6.0,55,0.00,,,0.00,,2013-03-31 19:43:00,
2013-03-31 15:54:00,56.0,40.0,29.84,SSE,166,3.0,6.0,55,0.00,,,0.00,,2013-03-31 19:54:00,
2013-03-31 16:03:00,53.0,45.0,29.84,SSE,157,1.0,5.0,74,0.01,,,0.01,,2013-03-31 20:03:00,
2013-03-31 16:12:00,53.0,45.0,29.84,SSE,157,1.0,5.0,74,0.01,,,0.01,,2013-03-31 20:12:00,
2013-03-31 16:23:00,51.0,46.0,29.84,SE,124,2.0,9.0,82,0.02,,,0.02,,2013-03-31 20:23:00,
2013-03-31 16:34:00,50.0,46.0,29.82,South,178,3.0,6.0,85,0.03,,,0.03,,2013-03-31 20:34:00,
2013-03-31 16:43:00,50.0,46.0,29.82,South,178,3.0,6.0,85,0.03,,,0.03,,2013-03-31 20:43:00,
2013-03-31 16:53:00,49.0,45.0,29.82,ESE,105,2.0,5.0,87,0.03,,,0.03,,2013-03-31 20:53:00,
2013-03-31 17:02:00,48.0,45.0,29.81,South,173,1.0,4.0,90,0.03,,,0.04,,2013-03-31 21:02:00,
2013-03-31 17:12:00,48.0,45.0,29.81,South,173,1.0,4.0,90,0.03,,,0.04,,2013-03-31 21:12:00,
2013-03-31 17:22:00,48.0,46.0,29.80,SE,130,1.0,5.0,92,0.03,,,0.05,,2013-03-31 21:22:00,
2013-03-31 17:34:00,48.0,46.0,29.80,SE,130,1.0,5.0,92,0.03,,,0.05,,2013-03-31 21:34:00,
2013-03-31 17:43:00,48.0,46.0,29.80,SE,130,1.0,5.0,92,0.03,,,0.05,,2013-03-31 21:43:00,
2013-03-31 17:54:00,47.0,45.0,29.78,East,98,2.0,5.0,94,0.02,,,0.05,,2013-03-31 21:54:00,
2013-03-31 18:03:00,47.0,46.0,29.77,SE,127,1.0,8.0,95,0.01,,,0.05,,2013-03-31 22:03:00,
2013-03-31 18:13:00,47.0,46.0,29.77,SE,127,1.0,8.0,95,0.01,,,0.05,,2013-03-31 22:13:00,
2013-03-31 18:23:00,47.0,46.0,29.77,East,82,1.0,7.0,95,0.02,,,0.07,,2013-03-31 22:23:00,
2013-03-31 18:33:00,47.0,46.0,29.77,East,82,1.0,7.0,95,0.02,,,0.07,,2013-03-31 22:33:00,
2013-03-31 18:43:00,47.0,46.0,29.77,East,82,1.0,7.0,95,0.02,,,0.07,,2013-03-31 22:43:00,
2013-03-31 18:53:00,47.0,46.0,29.74,SE,140,1.0,8.0,96,0.02,,,0.07,,2013-03-31 22:53:00,
2013-03-31 19:03:00,47.0,46.0,29.74,South,175,1.0,3.0,96,0.02,,,0.07,,2013-03-31 23:03:00,
2013-03-31 19:13:00,47.0,46.0,29.74,South,175,1.0,3.0,96,0.02,,,0.07,,2013-03-31 23:13:00,
2013-03-31 19:22:00,47.0,46.0,29.73,ESE,118,2.0,7.0,96,0.00,,,0.07,,2013-03-31 23:22:00,
2013-03-31 19:32:00,47.0,46.0,29.73,ESE,118,2.0,7.0,96,0.00,,,0.07,,2013-03-31 23:32:00,
2013-03-31 19:42:00,47.0,46.0,29.73,ESE,118,2.0,7.0,96,0.00,,,0.07,,2013-03-31 23:42:00,
2013-03-31 19:53:00,47.0,46.0,29.72,SSE,168,1.0,3.0,97,0.00,,,0.07,,2013-03-31 23:53:00,
2013-03-31 20:02:00,47.0,46.0,29.71,ESE,104,0.0,3.0,97,0.00,,,0.07,,2013-04-01 00:02:00,
2013-03-31 20:13:00,47.0,46.0,29.71,ESE,104,0.0,3.0,97,0.00,,,0.07,,2013-04-01 00:13:00,
2013-03-31 20:22:00,47.0,46.0,29.71,NW,304,1.0,2.0,97,0.00,,,0.07,,2013-04-01 00:22:00,
2013-03-31 20:32:00,47.0,46.0,29.72,WSW,251,0.0,2.0,97,0.01,,,0.08,,2013-04-01 00:32:00,
2013-03-31 20:43:00,47.0,46.0,29.72,WSW,251,0.0,2.0,97,0.01,,,0.08,,2013-04-01 00:43:00,
2013-03-31 20:53:00,47.0,46.0,29.72,WSW,251,0.0,2.0,97,0.01,,,0.08,,2013-04-01 00:53:00,
2013-03-31 21:03:00,47.0,46.0,29.71,ESE,111,0.0,0.0,97,0.01,,,0.08,,2013-04-01 01:03:00,
2013-03-31 21:12:00,47.0,46.0,29.71,ESE,111,0.0,0.0,97,0.01,,,0.08,,2013-04-01 01:12:00,
2013-03-31 21:23:00,47.0,46.0,29.70,SW,223,0.0,3.0,98,0.01,,,0.08,,2013-04-01 01:23:00,
2013-03-31 21:33:00,47.0,46.0,29.71,SW,223,0.0,1.0,98,0.00,,,0.08,,2013-04-01 01:33:00,
2013-03-31 21:42:00,47.0,46.0,29.71,SW,223,0.0,1.0,98,0.00,,,0.08,,2013-04-01 01:42:00,
2013-03-31 21:53:00,47.0,46.0,29.72,SW,223,0.0,0.0,98,0.00,,,0.08,,2013-04-01 01:53:00,
2013-03-31 22:03:00,47.0,46.0,29.72,SW,223,0.0,0.0,98,0.00,,,0.08,,2013-04-01 02:03:00,
2013-03-31 22:13:00,47.0,46.0,29.72,SW,223,0.0,0.0,98,0.00,,,0.08,,2013-04-01 02:13:00,
2013-03-31 22:23:00,47.0,46.0,29.71,SW,223,0.0,2.0,98,0.00,,,0.08,,2013-04-01 02:23:00,
2013-03-31 22:33:00,47.0,46.0,29.71,SW,223,0.0,2.0,98,0.00,,,0.08,,2013-04-01 02:33:00,
2013-03-31 22:43:00,47.0,46.0,29.71,SW,223,0.0,2.0,98,0.00,,,0.08,,2013-04-01 02:43:00,
2013-03-31 22:53:00,48.0,47.0,29.71,NW,304,1.0,3.0,98,0.00,,,0.08,,2013-04-01 02:53:00,
2013-03-31 23:03:00,48.0,47.0,29.71,NW,304,1.0,3.0,98,0.00,,,0.08,,2013-04-01 03:03:00,
2013-03-31 23:12:00,48.0,47.0,29.71,NW,304,1.0,3.0,98,0.00,,,0.08,,2013-04-01 03:12:00,
2013-03-31 23:22:00,48.0,47.0,29.71,NW,304,1.0,3.0,98,0.00,,,0.08,,2013-04-01 03:22:00,
2013-03-31 23:34:00,48.0,47.0,29.71,West,272,1.0,5.0,98,0.00,,,0.08,,2013-04-01 03:34:00,
2013-03-31 23:43:00,48.0,47.0,29.71,West,272,1.0,5.0,98,0.00,,,0.08,,2013-04-01 03:43:00,
2013-03-31 23:53:00,48.0,47.0,29.71,West,279,2.0,5.0,98,0.00,,,0.08,,2013-04-01 03:53:00,